Location: Ottawa
(45.4170°N, 75.7000°W)
Time: 01:35:50
(UTC-04:00)

Iridium 91 - Visible Passes

Search period start: 02 July 2016 00:00
Search period end: 12 July 2016 00:00
Orbit: 776 x 779 km, 86.4° (Epoch: 01 July)

Date Brightness Start Highest point End Pass type
(mag) Time Alt. Az. Time Alt. Az. Time Alt. Az.
02 Jul 5.7 23:03:48 10° N 23:09:00 71° W 23:12:31 21° S visible
03 Jul 5.6 22:30:16 10° N 22:35:29 66° E 22:39:14 19° SSE visible
04 Jul 7.8 00:12:24 10° NW 00:15:36 17° WNW 00:18:47 10° WSW visible
04 Jul 6.3 21:56:58 10° NNE 22:01:49 37° E 22:05:58 13° SE visible
04 Jul 7.1 23:37:58 10° NNW 23:42:23 29° W 23:46:27 12° SW visible
05 Jul 6.2 23:04:01 10° NNW 23:09:04 50° W 23:13:11 15° SSW visible
06 Jul 5.5 22:30:20 10° N 22:35:36 88° W 22:39:56 15° S visible
07 Jul 8.1 00:13:45 10° NW 00:15:27 12° WNW 00:17:10 10° W visible
07 Jul 5.8 21:56:54 10° N 22:02:01 52° E 22:06:43 12° SSE visible
07 Jul 7.6 23:38:32 10° NNW 23:42:19 21° W 23:46:06 10° SW visible
08 Jul 6.5 21:23:44 10° NNE 21:28:19 30° ENE 21:32:52 10° SE visible
08 Jul 6.9 23:04:19 10° NNW 23:09:03 35° W 23:13:45 10° SSW visible
09 Jul 5.9 22:30:30 10° N 22:35:40 63° W 22:40:46 10° S visible
10 Jul 5.5 21:56:55 10° N 22:02:10 74° E 22:07:22 10° S visible
10 Jul 8.0 23:39:23 10° NW 23:42:12 15° WNW 23:45:00 10° WSW visible
11 Jul 6.1 21:23:35 10° N 21:28:32 42° E 21:33:28 10° SSE visible
11 Jul 7.4 23:04:46 10° NNW 23:09:00 26° W 23:13:14 10° SW visible
